Total_Precipitation_Accumulation
1.19 1.23 1.24 1.20 1.19 1.16 1.11 1.07 1.12 1.21 1.20 1.20 1.34 1.41 1.48 1.57 1.75 1.99 2.15 2.15 2.07 2.08 2.08 2.17 2.35 2.46 2.69 2.66 2.56 2.48 2.37 2.26 2.16 1.94 1.69 1.53 1.61 1.66 1.77 1.88 1.85 1.73 1.52
1.30 1.33 1.28 1.21 1.16 1.13 1.08 1.00 0.99 0.96 0.94 1.05 1.19 1.23 1.28 1.31 1.51 1.80 2.00 2.04 2.01 1.91 1.86 1.96 2.18 2.36 2.59 2.71 2.67 2.54 2.47 2.34 2.25 2.22 2.04 1.80 1.71 1.73 1.89 2.00 1.94 1.86 1.78
1.38 1.26 1.19 1.12 1.04 1.00 0.92 0.87 0.90 0.90 0.96 1.07 1.13 1.18 1.22 1.28 1.32 1.45 1.64 1.78 1.77 1.70 1.70 1.72 1.74 1.93 2.22 2.43 2.47 2.52 2.56 2.54 2.53 2.40 2.22 2.12 2.00 1.81 1.94 2.02 2.00 2.02 1.91
1.51 1.41 1.29 1.17 1.08 1.04 0.95 0.87 0.84 0.86 0.94 1.02 1.06 1.14 1.23 1.28 1.29 1.32 1.35 1.41 1.45 1.53 1.57 1.56 1.59 1.64 1.87 2.08 2.18 2.36 2.59 2.63 2.69 2.62 2.38 2.27 2.21 1.99 2.05 2.16 2.24 2.20 2.09
1.49 1.49 1.38 1.21 1.08 1.01 0.97 0.89 0.87 0.87 0.88 0.95 1.00 1.01 1.06 1.17 1.28 1.33 1.22 1.19 1.27 1.38 1.37 1.30 1.33 1.50 1.71 1.84 1.82 2.11 2.46 2.66 2.68 2.64 2.51 2.48 2.26 2.06 1.92 1.90 2.09 2.33 2.34
1.31 1.32 1.15 1.00 0.85 0.79 0.82 0.85 0.86 0.83 0.88 0.91 0.86 0.88 0.97 1.00 1.25 1.29 1.12 1.06 1.11 1.22 1.30 1.28 1.17 1.19 1.31 1.44 1.48 1.62 1.88 2.10 2.42 2.63 2.58 2.48 2.18 2.02 1.97 1.95 1.98 2.11 2.29
0.91 0.92 0.84 0.77 0.75 0.81 0.84 0.80 0.81 0.84 0.85 0.85 0.83 0.82 0.85 0.97 1.09 0.99 1.01 0.97 1.02 1.10 1.19 1.28 1.19 1.09 1.24 1.28 1.40 1.47 1.43 1.48 1.79 2.18 2.35 2.38 2.36 2.23 2.16 2.02 1.96 2.01 2.07
0.63 0.66 0.63 0.63 0.65 0.73 0.77 0.76 0.83 0.88 0.84 0.83 0.87 0.87 0.85 0.92 0.96 0.85 0.94 0.90 0.90 0.97 1.11 1.23 1.28 1.22 1.27 1.40 1.35 1.36 1.28 1.25 1.49 1.52 1.75 2.15 2.31 2.40 2.31 2.31 2.42 2.36 2.19
0.34 0.36 0.40 0.43 0.46 0.49 0.51 0.61 0.74 0.81 0.85 0.90 0.95 0.95 0.86 0.85 0.94 0.88 0.92 0.87 0.87 0.91 0.95 1.05 1.15 1.12 1.36 1.50 1.39 1.50 1.49 1.37 1.56 1.67 1.75 1.86 2.05 2.26 2.32 2.26 2.26 2.33 2.28
0.23 0.25 0.28 0.32 0.34 0.37 0.42 0.47 0.55 0.58 0.66 0.80 0.84 0.85 0.87 0.84 1.07 1.02 1.00 0.88 0.89 0.98 1.01 0.99 1.18 1.22 1.40 1.39 1.25 1.45 1.50 1.46 1.44 1.48 1.48 1.51 1.47 1.67 1.95 2.01 2.16 2.22 2.15
0.29 0.30 0.31 0.31 0.32 0.37 0.41 0.45 0.49 0.53 0.62 0.68 0.73 0.77 0.85 0.95 1.15 1.18 1.19 1.04 1.02 1.12 1.10 1.01 0.97 1.17 1.08 1.17 1.18 1.16 1.43 1.49 1.43 1.54 1.57 1.46 1.42 1.47 1.58 1.70 1.93 2.10 2.08
0.31 0.33 0.34 0.34 0.36 0.38 0.43 0.49 0.52 0.56 0.59 0.63 0.67 0.71 0.75 0.83 0.95 1.05 1.09 1.10 1.12 1.12 1.15 1.04 1.04 1.17 0.99 0.96 0.95 1.07 1.30 1.43 1.38 1.49 1.55 1.55 1.46 1.40 1.43 1.50 1.58 1.66 1.69
0.31 0.33 0.36 0.37 0.37 0.36 0.41 0.48 0.52 0.55 0.57 0.61 0.66 0.73 0.77 0.79 0.86 0.91 0.91 0.96 1.04 1.03 1.02 1.10 1.12 1.08 0.95 0.86 0.87 0.98 1.07 1.18 1.36 1.43 1.39 1.39 1.37 1.38 1.41 1.39 1.43 1.47 1.50
0.32 0.35 0.36 0.37 0.38 0.39 0.41 0.46 0.50 0.54 0.58 0.62 0.67 0.72 0.75 0.77 0.81 0.82 0.90 0.96 0.94 0.93 0.94 0.94 0.95 0.96 0.95 0.87 0.85 0.91 0.98 1.11 1.22 1.23 1.21 1.21 1.28 1.38 1.48 1.51 1.53 1.53 1.55
0.29 0.32 0.33 0.35 0.39 0.41 0.42 0.45 0.47 0.52 0.62 0.70 0.72 0.75 0.71 0.69 0.72 0.79 0.88 0.97 1.05 1.12 1.18 1.09 1.06 1.05 1.01 0.94 0.88 0.89 0.96 1.06 1.09 1.04 1.05 1.05 1.09 1.24 1.38 1.45 1.55 1.55 1.53
0.34 0.32 0.32 0.34 0.37 0.40 0.40 0.41 0.45 0.48 0.58 0.63 0.63 0.64 0.63 0.65 0.70 0.71 0.75 0.85 0.98 1.15 1.28 1.24 1.28 1.29 1.23 1.15 1.06 0.98 0.95 0.97 1.03 1.09 1.11 1.10 1.09 1.15 1.28 1.38 1.45 1.50 1.48
0.35 0.37 0.37 0.37 0.37 0.40 0.40 0.38 0.44 0.45 0.47 0.51 0.54 0.57 0.63 0.73 0.76 0.79 0.81 0.86 0.91 1.07 1.22 1.24 1.28 1.30 1.24 1.21 1.21 1.11 1.01 0.97 1.02 1.10 1.15 1.18 1.21 1.23 1.32 1.40 1.44 1.47 1.49
0.35 0.39 0.41 0.42 0.43 0.43 0.47 0.50 0.50 0.53 0.54 0.50 0.49 0.50 0.54 0.63 0.69 0.74 0.85 0.95 0.93 1.00 1.09 1.13 1.16 1.08 1.04 1.05 1.05 1.04 0.97 0.95 0.97 0.99 1.03 1.11 1.18 1.24 1.33 1.42 1.46 1.45 1.45
0.33 0.39 0.43 0.48 0.52 0.50 0.51 0.57 0.58 0.51 0.48 0.49 0.49 0.50 0.51 0.54 0.57 0.62 0.73 0.88 0.91 0.90 0.88 0.87 0.85 0.85 0.85 0.90 0.90 0.90 0.90 0.89 0.90 0.93 0.95 1.03 1.11 1.17 1.24 1.32 1.41 1.49 1.45
0.32 0.40 0.44 0.46 0.49 0.50 0.50 0.55 0.56 0.54 0.54 0.57 0.58 0.61 0.62 0.60 0.61 0.65 0.69 0.74 0.74 0.73 0.75 0.78 0.80 0.84 0.89 0.92 0.94 0.94 0.92 0.92 0.92 0.94 0.96 1.03 1.08 1.14 1.19 1.28 1.36 1.44 1.42
0.34 0.37 0.42 0.46 0.47 0.49 0.50 0.54 0.56 0.56 0.58 0.62 0.61 0.66 0.72 0.70 0.70 0.73 0.80 0.82 0.81 0.80 0.79 0.79 0.78 0.80 0.89 0.95 0.97 0.99 0.99 0.99 1.00 1.03 1.04 1.08 1.13 1.17 1.20 1.29 1.37 1.40 1.44
0.37 0.38 0.40 0.45 0.48 0.51 0.54 0.57 0.62 0.61 0.59 0.63 0.62 0.64 0.72 0.70 0.69 0.68 0.71 0.76 0.78 0.81 0.84 0.88 0.88 0.85 0.87 0.96 1.02 1.05 1.08 1.09 1.08 1.09 1.11 1.13 1.18 1.20 1.23 1.31 1.41 1.43 1.46
0.44 0.45 0.46 0.48 0.50 0.54 0.56 0.58 0.62 0.62 0.62 0.64 0.66 0.65 0.66 0.69 0.69 0.68 0.68 0.70 0.73 0.77 0.82 0.88 0.93 0.89 0.83 0.87 0.96 1.06 1.12 1.12 1.13 1.17 1.23 1.26 1.24 1.24 1.27 1.33 1.39 1.44 1.43
0.49 0.53 0.57 0.60 0.61 0.62 0.63 0.66 0.68 0.65 0.66 0.69 0.71 0.70 0.69 0.73 0.73 0.70 0.71 0.73 0.77 0.82 0.85 0.89 0.91 0.88 0.85 0.85 0.91 0.99 1.06 1.09 1.09 1.14 1.21 1.31 1.33 1.30 1.31 1.37 1.42 1.45 1.51
0.50 0.55 0.58 0.62 0.63 0.65 0.66 0.67 0.69 0.68 0.69 0.72 0.73 0.73 0.73 0.76 0.78 0.76 0.75 0.74 0.78 0.84 0.83 0.87 0.91 0.91 0.91 0.90 0.91 0.98 1.14 1.20 1.17 1.17 1.20 1.27 1.32 1.33 1.37 1.46 1.55 1.59 1.64
0.49 0.55 0.58 0.62 0.64 0.67 0.70 0.69 0.70 0.73 0.74 0.74 0.76 0.78 0.78 0.78 0.80 0.80 0.81 0.80 0.80 0.81 0.82 0.85 0.88 0.91 0.93 0.97 0.99 1.07 1.15 1.09 1.07 1.15 1.18 1.25 1.33 1.33 1.35 1.41 1.43 1.50 1.56